Temp_Advection
nan nan nan nan nan nan nan nan nan nan nan nan nan nan nan nan nan nan nan nan nan nan
nan 0 0 0 -1 -1 0 1 2 1 1 0 1 1 0 0 0 0 0 0 0 nan
nan 0 -0 -1 -1 -1 -0 1 1 0 0 0 1 1 0 0 0 0 0 0 -0 nan
nan -0 -0 -0 -0 -0 -0 1 0 0 0 1 1 1 0 0 0 0 -0 -0 0 nan
nan 0 -0 0 0 1 0 1 0 0 1 1 1 0 0 0 1 0 0 0 0 nan
nan 0 0 0 1 0 0 0 1 1 1 1 1 0 1 1 0 0 0 0 0 nan
nan 0 0 0 0 0 0 1 1 1 1 1 0 0 0 0 0 0 0 1 0 nan
nan 0 0 0 0 0 1 1 1 1 1 1 1 0 -0 -0 -0 -0 -0 0 0 nan
nan -0 0 0 0 0 1 1 1 1 1 1 1 1 0 0 0 0 0 -0 0 nan
nan 0 0 1 1 1 1 0 1 1 0 1 0 1 1 1 1 0 0 0 0 nan
nan 0 0 0 1 0 1 1 0 1 0 0 1 1 0 0 0 0 0 0 0 nan
nan 0 0 0 0 0 0 0 0 0 0 -1 -0 0 1 0 -0 0 -0 0 0 nan
nan 1 0 1 0 0 0 0 0 0 0 -0 -1 -1 0 0 0 0 -0 -0 0 nan
nan nan nan nan nan nan nan nan nan nan nan nan nan nan nan nan nan nan nan nan nan nan
Wind_Speed
27 33 35 37 40 41 40 34 34 34 32 28 31 36 33 34 32 31 29 24 26 25
20 28 32 34 39 41 41 37 33 34 36 32 31 33 30 32 31 26 25 22 24 25
18 21 25 35 37 33 38 36 34 36 36 34 30 27 30 29 28 26 25 25 25 23
13 17 24 28 29 31 34 33 33 32 33 34 29 28 27 26 25 22 22 24 22 20
13 20 21 30 27 30 31 31 33 31 31 32 29 27 26 26 24 25 21 22 20 19
10 17 26 25 28 30 32 31 31 29 30 29 29 28 26 24 21 20 21 20 20 19
8 16 16 18 22 27 28 31 29 29 29 30 31 25 22 23 25 24 24 22 20 17
10 3 12 12 20 22 25 28 30 31 28 27 24 23 24 24 26 27 26 22 18 17
10 13 17 17 18 18 25 34 31 34 34 32 26 24 25 26 25 23 21 20 19 18
12 17 18 21 20 26 32 35 36 36 34 29 27 25 25 23 22 22 20 18 18 15
16 18 21 23 27 33 36 34 36 35 33 33 28 26 24 22 21 20 19 16 15 13
21 22 26 29 33 33 33 35 34 32 30 28 28 25 24 23 22 20 19 16 14 12
21 26 34 37 39 35 33 32 32 32 25 26 27 22 20 19 19 18 17 16 12 10
22 30 31 32 32 32 33 32 31 29 27 25 24 23 20 18 16 15 15 12 12 9
Wind_Direction
249 233 229 232 226 220 221 225 210 204 209 211 208 207 211 207 207 208 213 214 215 215
240 231 230 227 225 220 215 219 211 208 210 211 212 204 202 203 204 208 212 212 218 221
245 231 220 218 215 217 215 213 205 204 207 206 205 209 205 210 209 212 212 213 217 223
238 215 216 215 209 211 208 206 200 202 204 200 204 196 196 197 199 203 215 214 220 220
240 210 208 200 202 206 196 199 199 195 204 195 195 192 190 190 192 194 212 209 206 207
182 201 201 190 190 184 189 193 195 192 195 195 178 184 186 187 188 191 196 193 185 180
86 177 188 171 178 181 188 191 185 180 176 171 177 180 173 186 182 181 181 175 169 164
152 162 159 160 159 184 177 178 176 175 171 166 159 169 170 171 167 168 164 160 158 159
165 166 161 163 159 165 171 169 169 162 161 156 149 164 168 169 169 167 163 158 158 156
166 170 164 163 159 157 157 155 154 155 153 152 158 161 162 162 162 160 153 155 154 152
172 167 162 162 156 154 152 155 156 152 153 152 151 157 158 156 156 149 143 147 149 148
172 164 156 154 155 155 157 155 154 146 149 153 157 158 158 155 154 145 147 149 143 144
170 165 157 153 151 151 151 151 151 144 158 159 151 148 148 153 146 148 150 152 139 140
162 157 156 155 152 150 146 145 148 151 151 149 144 145 143 135 143 146 148 147 155 148
Height
1402 1407 1413 1418 1422 1429 1435 1441 1447 1454 1460 1466 1470 1476 1481 1487 1492 1496 1500 1504 1510 1513
1395 1400 1403 1410 1415 1423 1429 1435 1443 1449 1455 1461 1467 1472 1478 1483 1488 1493 1497 1500 1507 1510
1391 1394 1398 1402 1409 1417 1424 1431 1438 1444 1450 1457 1462 1468 1474 1479 1485 1490 1495 1498 1504 1506
1388 1391 1395 1400 1405 1413 1419 1427 1434 1441 1448 1454 1460 1465 1472 1477 1483 1488 1493 1497 1500 1503
1385 1388 1392 1395 1403 1409 1417 1424 1432 1439 1446 1450 1458 1464 1469 1475 1481 1486 1491 1495 1498 1501
1389 1390 1392 1396 1401 1407 1415 1423 1429 1437 1443 1449 1455 1464 1469 1474 1480 1484 1489 1494 1497 1499
1392 1393 1395 1398 1404 1410 1416 1422 1429 1436 1444 1450 1457 1462 1469 1474 1479 1485 1488 1496 1498 1500
1396 1397 1400 1403 1407 1412 1417 1423 1430 1438 1444 1453 1458 1464 1470 1476 1481 1486 1490 1494 1496 1502
1398 1400 1402 1406 1409 1414 1418 1425 1432 1440 1447 1453 1460 1466 1472 1477 1482 1487 1489 1492 1498 1503
1400 1403 1405 1409 1413 1418 1423 1428 1435 1442 1449 1455 1462 1468 1474 1479 1484 1488 1489 1496 1500 1503
1402 1405 1408 1412 1416 1422 1428 1433 1439 1445 1452 1458 1465 1471 1476 1481 1485 1488 1491 1498 1502 1506
1406 1407 1411 1415 1421 1427 1432 1438 1443 1449 1456 1461 1466 1472 1477 1480 1486 1488 1493 1499 1502 1505
1409 1411 1415 1419 1424 1430 1437 1443 1449 1453 1461 1466 1470 1475 1479 1482 1484 1489 1494 1499 1500 1505
1414 1418 1422 1426 1431 1436 1441 1447 1452 1457 1462 1468 1471 1476 1481 1484 1489 1492 1496 1499 1504 1508